Weather History for Lincoln, NE

Change the Weather History Date:

Monday, March 11, 2013

  Actual Average Record
Temperature  
Mean Temperature 23 °F 38 °F  
Max Temperature 31 °F 50 °F 84 °F (1972)
Min Temperature 14 °F 26 °F -19 °F (1948)
Degree Days  
Heating Degree Days 42 27  
Month to date heating degree days 358 317  
Since 1 July heating degree days 4986 5020  
Cooling Degree Days 0 0  
Month to date cooling degree days 0 0  
Year to date cooling degree days 0 0  
Moisture  
Dew Point 15 °F    
Average Humidity 69    
Maximum Humidity 84    
Minimum Humidity 53    
Precipitation  
Precipitation T in 0.05 in 0.73 in (1939)
Month to date precipitation 0.94 0.51  
Year to date precipitation 2.21 1.92  
Snow  
Snow T in 0.20 in - ()
Month to date snowfall 5.7 1.9  
Since 1 July snowfall 22.5 21.6  
Snow Depth 6.00 in    
Sea Level Pressure  
Sea Level Pressure 29.98 in    
Wind  
Wind Speed 8 mph (NW)    
Max Wind Speed 21 mph    
Max Gust Speed 25 mph    
Visibility 9 miles    
Events Snow    
T = Trace of Precipitation, MM = Missing Value Source: NWS Daily Summary

Daily Weather History Graph

Daily Weather History Graph

Search for Another Location

Airport:

Trip Planner

Search our weather history database for the weather conditions in past years. The results will help you decide how hot, cold, wet, or windy it might be!

Date:

Astronomy

Mar. 11, 2013 Rise Set
Actual Time 7:44 AM CDT 7:29 PM CDT
Civil Twilight 7:17 AM CDT 7:57 PM CDT
Nautical Twilight 6:45 AM CDT 8:28 PM CDT
Astronomical Twilight 6:13 AM CDT 9:01 PM CDT
Moon 7:19 AM CDT (3/11) 7:43 PM CDT (3/11)
Length of Visible Light 12h 39m
Length of Day
11h 44m
Waning Crescent, 0% of the Moon is Illuminated
Mar 11
Waning Crescent
Mar 11
New
Mar 19
First Quarter
Mar 27
Full
Apr 2
Last Quarter

Hourly Weather History & Observations

Time (CDT) Temp. Windchill Dew Point Humidity Pressure Visibility Wind Dir Wind Speed Gust Speed Precip Events Conditions
12:03 AM 21.2 °F 6.4 °F 17.6 °F 86% 29.98 in 1.8 mi NNW 18.4 mph - 0.00 in Snow Light Snow
12:14 AM 21.2 °F 6.4 °F 17.6 °F 86% 29.97 in 2.0 mi NNW 18.4 mph 26.5 mph 0.00 in Snow Light Snow
12:27 AM 21.2 °F 6.4 °F 17.6 °F 86% 29.97 in 3.0 mi NNW 18.4 mph - 0.00 in Snow Light Snow
12:38 AM 21.2 °F 6.0 °F 17.6 °F 86% 29.96 in 4.0 mi NNW 19.6 mph - 0.00 in Snow Light Snow
12:54 AM 21.9 °F 7.8 °F 17.1 °F 82% 30.02 in 8.0 mi NNW 17.3 mph - 0.00 in   Overcast
1:13 AM 21.2 °F 7.8 °F 17.6 °F 86% 29.96 in 10.0 mi NNW 15.0 mph - N/A   Overcast
1:41 AM 21.2 °F 8.3 °F 17.6 °F 86% 29.96 in 9.0 mi NNW 13.8 mph 21.9 mph N/A Snow Light Snow
1:54 AM 21.9 °F 8.2 °F 17.1 °F 82% 30.01 in 9.0 mi NNW 16.1 mph - 0.00 in Snow Light Snow
2:54 AM 21.0 °F 8.6 °F 15.1 °F 78% 30.00 in 10.0 mi NNW 12.7 mph - 0.00 in   Overcast
3:08 AM 19.4 °F 7.2 °F 15.8 °F 86% 29.94 in 10.0 mi NNW 11.5 mph - N/A   Scattered Clouds
3:42 AM 19.4 °F 7.2 °F 14.0 °F 80% 29.95 in 10.0 mi NW 11.5 mph - N/A   Overcast
3:54 AM 19.9 °F 6.2 °F 12.9 °F 74% 30.00 in 10.0 mi NW 15.0 mph - N/A   Overcast
4:54 AM 19.0 °F 6.1 °F 12.9 °F 77% 29.99 in 10.0 mi NNW 12.7 mph - N/A   Overcast
5:54 AM 18.0 °F 3.6 °F 12.0 °F 78% 29.99 in 10.0 mi NW 15.0 mph - N/A   Overcast
6:45 AM 17.6 °F 3.2 °F 10.4 °F 73% 29.93 in 10.0 mi NW 15.0 mph - N/A   Overcast
6:54 AM 17.1 °F 3.0 °F 10.9 °F 77% 29.99 in 10.0 mi NW 13.8 mph - N/A   Overcast
7:19 AM 14.0 °F 3.9 °F 8.6 °F 79% 29.94 in 10.0 mi WNW 6.9 mph - 0.00 in   Mostly Cloudy
7:30 AM 14.0 °F 0.5 °F 8.6 °F 79% 29.94 in 10.0 mi NW 11.5 mph - 0.00 in   Scattered Clouds
7:39 AM 14.0 °F -0.2 °F 8.6 °F 79% 29.95 in 10.0 mi WNW 12.7 mph - 0.00 in   Mostly Cloudy
7:54 AM 15.1 °F 2.5 °F 9.0 °F 77% 30.01 in 9.0 mi WNW 10.4 mph - 0.00 in   Overcast
8:54 AM 16.0 °F 5.3 °F 12.0 °F 84% 30.02 in 2.5 mi WNW 8.1 mph - 0.00 in Snow Light Snow
9:04 AM 17.6 °F 6.4 °F 12.2 °F 79% 29.97 in 3.0 mi WNW 9.2 mph - 0.00 in Snow Light Snow
9:51 AM 19.4 °F 10.4 °F 12.2 °F 74% 29.97 in 4.0 mi NW 6.9 mph - 0.00 in   Scattered Clouds
9:54 AM 19.0 °F 8.2 °F 12.0 °F 74% 30.03 in 9.0 mi NNW 9.2 mph - 0.00 in   Partly Cloudy
10:39 AM 21.2 °F 10.1 °F 14.0 °F 74% 29.98 in 10.0 mi NNW 10.4 mph - N/A   Mostly Cloudy
10:54 AM 21.0 °F 9.3 °F 14.0 °F 74% 30.03 in 10.0 mi NW 11.5 mph - N/A   Mostly Cloudy
11:25 AM 21.2 °F 9.5 °F 15.8 °F 80% 29.96 in 10.0 mi NNW 11.5 mph - N/A   Scattered Clouds
11:54 AM 24.1 °F 16.0 °F 16.0 °F 71% 30.01 in 10.0 mi NNW 6.9 mph - N/A   Clear
12:54 PM 24.8 °F 14.6 °F 15.8 °F 69% 29.96 in 10.0 mi WNW 10.4 mph - N/A   Clear
1:54 PM 27.0 °F 18.0 °F 17.1 °F 66% 29.98 in 10.0 mi WNW 9.2 mph - N/A   Clear
2:54 PM 28.0 °F 18.6 °F 18.0 °F 66% 29.96 in 10.0 mi West 10.4 mph - N/A   Clear
3:54 PM 30.0 °F 23.2 °F 16.0 °F 56% 29.96 in 10.0 mi WSW 6.9 mph - N/A   Clear
4:54 PM 30.9 °F 24.3 °F 16.0 °F 54% 29.96 in 10.0 mi WSW 6.9 mph - N/A   Clear
5:54 PM 30.9 °F 25.2 °F 17.1 °F 57% 29.96 in 10.0 mi SSW 5.8 mph - N/A   Clear
6:54 PM 28.9 °F 25.2 °F 17.1 °F 61% 29.97 in 10.0 mi South 3.5 mph - N/A   Clear
7:54 PM 28.9 °F - 17.1 °F 61% 30.00 in 10.0 mi Calm Calm - N/A   Clear
8:54 PM 26.1 °F - 19.0 °F 75% 30.02 in 10.0 mi Calm Calm - N/A   Clear
9:54 PM 21.0 °F - 18.0 °F 88% 30.03 in 9.0 mi Calm Calm - N/A   Clear
10:54 PM 24.1 °F - 19.0 °F 81% 30.06 in 9.0 mi Calm Calm - N/A   Clear
11:54 PM 19.0 °F 11.1 °F 16.0 °F 88% 30.08 in 10.0 mi NNW 5.8 mph - N/A   Clear